Precipitable_Water
1.67 1.86 1.89 1.94 1.89 1.87 1.73 1.65 1.55 1.67 1.70 1.71 1.66 1.70 1.81 1.93 1.95 1.94 1.95 1.94 1.89 1.93 2.00 1.99 1.89 1.91 1.79 1.77 1.73 1.73 1.74 1.78 1.61 1.66 1.88 1.97 1.78 1.83 1.88 1.90 1.99 2.02 1.94
1.75 1.82 1.82 1.78 1.75 1.64 1.72 1.71 1.66 1.59 1.61 1.63 1.70 1.68 1.70 1.76 1.89 1.83 1.74 1.78 1.85 1.97 2.10 1.96 1.93 1.85 1.73 1.65 1.64 1.58 1.70 1.77 1.62 1.52 1.76 1.76 1.83 2.00 2.05 2.03 2.17 2.29 2.19
1.73 1.76 1.68 1.72 1.73 1.76 1.70 1.67 1.71 1.66 1.59 1.63 1.65 1.62 1.60 1.62 1.68 1.74 1.75 1.75 1.80 1.88 1.91 1.83 1.80 1.70 1.58 1.56 1.57 1.65 1.79 1.80 1.67 1.62 1.56 1.81 2.06 2.17 2.17 2.28 2.21 2.26 2.28
1.60 1.57 1.53 1.57 1.58 1.54 1.50 1.47 1.49 1.56 1.63 1.62 1.56 1.50 1.55 1.58 1.61 1.67 1.70 1.70 1.78 1.80 1.81 1.80 1.70 1.61 1.50 1.56 1.65 1.63 1.75 1.67 1.59 1.60 1.63 1.77 1.95 2.26 2.23 2.07 2.03 2.17 2.15
1.12 1.11 1.11 1.15 1.17 1.16 1.17 1.19 1.21 1.20 1.24 1.43 1.52 1.53 1.53 1.56 1.62 1.66 1.72 1.68 1.71 1.79 1.80 1.76 1.67 1.58 1.58 1.59 1.52 1.56 1.52 1.51 1.59 1.63 1.63 1.73 1.75 1.82 1.81 1.92 1.92 1.99 2.00
1.03 1.02 1.05 1.07 1.06 1.01 0.97 0.94 0.98 1.05 1.06 1.07 1.06 1.22 1.32 1.46 1.58 1.67 1.73 1.70 1.68 1.73 1.68 1.60 1.61 1.58 1.46 1.45 1.49 1.47 1.51 1.57 1.58 1.61 1.67 1.68 1.74 1.73 1.81 1.77 1.72 1.69 1.63
1.07 1.10 1.10 1.10 1.08 1.09 1.08 1.04 0.97 0.92 1.10 1.16 1.06 0.97 1.00 1.23 1.41 1.61 1.73 1.71 1.69 1.59 1.61 1.56 1.54 1.47 1.41 1.42 1.50 1.48 1.51 1.59 1.70 1.63 1.52 1.54 1.57 1.65 1.69 1.59 1.58 1.59 1.53
1.06 1.02 1.02 0.99 0.94 0.94 0.94 0.92 0.91 0.95 0.93 0.98 1.07 1.03 1.00 1.10 1.31 1.48 1.75 1.76 1.79 1.71 1.58 1.56 1.47 1.42 1.46 1.40 1.40 1.35 1.40 1.52 1.59 1.63 1.58 1.53 1.56 1.57 1.56 1.56 1.49 1.40 1.31
0.95 0.95 0.99 1.03 0.98 0.93 0.87 0.88 0.94 0.93 0.93 0.97 1.02 1.12 1.11 1.27 1.32 1.40 1.52 1.73 1.75 1.62 1.66 1.66 1.53 1.49 1.49 1.49 1.40 1.28 1.29 1.37 1.56 1.50 1.52 1.44 1.41 1.37 1.36 1.27 1.18 1.13 1.11
0.95 0.97 0.97 0.96 0.91 0.87 0.88 0.89 0.91 0.89 0.92 1.03 1.04 1.09 1.28 1.24 1.38 1.41 1.46 1.53 1.38 1.60 1.47 1.50 1.54 1.52 1.49 1.45 1.38 1.29 1.23 1.29 1.34 1.31 1.26 1.22 1.20 1.21 1.25 1.23 1.15 0.95 0.96
0.93 0.92 0.92 0.92 0.90 0.91 0.90 0.93 0.96 0.97 0.99 1.03 1.11 1.15 1.32 1.36 1.44 1.49 1.52 1.63 1.57 1.43 1.40 1.45 1.57 1.53 1.46 1.45 1.40 1.32 1.28 1.20 1.05 0.95 0.97 1.02 1.02 1.04 1.01 0.98 0.95 0.84 0.74
0.93 0.91 0.91 0.94 0.94 0.91 0.91 0.94 1.02 1.03 1.05 1.05 1.11 1.21 1.42 1.51 1.57 1.61 1.62 1.53 1.69 1.59 1.50 1.52 1.53 1.59 1.50 1.44 1.47 1.42 1.26 1.15 1.12 1.10 1.06 1.03 1.01 0.97 0.93 0.84 0.72 0.74 0.74
0.78 0.78 0.81 0.86 0.87 0.90 0.88 0.91 0.96 1.06 1.13 1.19 1.22 1.23 1.38 1.49 1.53 1.66 1.73 1.84 1.90 1.72 1.74 1.67 1.62 1.52 1.50 1.48 1.41 1.26 1.18 1.11 1.15 1.07 1.00 0.96 1.02 1.01 0.91 0.81 0.77 0.78 0.77
0.73 0.72 0.75 0.77 0.83 0.88 0.91 0.91 0.96 1.03 1.16 1.25 1.30 1.32 1.41 1.45 1.50 1.56 1.63 1.65 1.64 1.65 1.56 1.45 1.42 1.41 1.32 1.23 1.18 1.13 1.16 1.13 1.06 0.99 0.95 0.94 0.98 0.94 0.83 0.76 0.73 0.73 0.71
0.74 0.72 0.75 0.79 0.82 0.86 0.90 0.93 0.95 1.03 1.16 1.20 1.25 1.29 1.31 1.31 1.35 1.48 1.50 1.47 1.52 1.54 1.48 1.39 1.27 1.16 1.11 1.07 1.11 1.09 1.05 1.03 0.96 0.94 0.89 0.89 0.84 0.76 0.80 0.80 0.75 0.72 0.66
0.70 0.68 0.71 0.76 0.83 0.87 0.89 0.91 1.02 1.07 1.12 1.17 1.20 1.23 1.30 1.35 1.38 1.38 1.41 1.39 1.39 1.39 1.31 1.22 1.13 1.06 1.02 1.04 1.11 1.08 0.97 0.99 0.94 0.88 0.87 0.82 0.77 0.78 0.80 0.80 0.75 0.68 0.65
0.74 0.68 0.71 0.75 0.75 0.78 0.82 0.85 0.86 0.98 1.08 1.11 1.16 1.20 1.22 1.23 1.26 1.29 1.31 1.29 1.29 1.28 1.18 1.15 1.12 1.11 1.10 1.07 0.99 0.92 0.92 0.92 0.86 0.82 0.82 0.80 0.84 0.83 0.79 0.72 0.71 0.68 0.67
0.83 0.82 0.78 0.77 0.77 0.74 0.73 0.75 0.80 0.84 0.88 0.94 1.06 1.09 1.11 1.14 1.18 1.21 1.21 1.26 1.23 1.26 1.25 1.21 1.21 1.23 1.21 1.14 1.08 0.99 0.91 0.88 0.82 0.80 0.81 0.83 0.79 0.75 0.72 0.72 0.73 0.69 0.68
0.92 0.89 0.90 0.86 0.84 0.79 0.76 0.77 0.78 0.78 0.82 0.89 0.96 1.02 1.09 1.11 1.14 1.17 1.20 1.15 1.12 1.15 1.18 1.16 1.17 1.20 1.19 1.15 1.13 1.04 0.98 0.88 0.82 0.84 0.83 0.78 0.77 0.74 0.70 0.70 0.70 0.68 0.66
0.97 0.98 0.97 0.93 0.88 0.83 0.81 0.80 0.81 0.77 0.74 0.78 0.81 0.86 0.97 1.04 1.02 1.04 1.07 1.10 1.14 1.10 1.17 1.19 1.19 1.18 1.10 1.12 1.14 1.10 1.03 0.91 0.85 0.79 0.75 0.71 0.73 0.73 0.69 0.69 0.68 0.66 0.64
1.07 1.01 1.04 1.01 0.90 0.90 0.85 0.80 0.89 0.89 0.85 0.85 0.79 0.86 0.95 0.98 0.95 0.98 1.01 1.07 1.12 1.15 1.17 1.14 1.15 1.13 1.15 1.19 1.11 1.03 0.95 0.89 0.84 0.80 0.79 0.76 0.73 0.67 0.67 0.67 0.65 0.66 0.67
1.09 1.07 1.03 0.97 0.94 0.86 0.84 0.84 0.84 0.86 0.93 0.92 0.88 0.92 0.96 0.97 0.98 1.05 1.09 1.06 1.04 1.07 1.11 1.10 1.09 1.10 1.10 1.07 1.00 0.99 0.94 0.90 0.86 0.84 0.81 0.79 0.75 0.73 0.72 0.69 0.66 0.67 0.68
1.11 1.14 1.00 0.94 0.85 0.87 0.85 0.79 0.78 0.83 0.86 0.83 0.85 0.88 0.95 0.98 1.01 0.99 0.95 1.01 0.99 1.06 1.08 1.08 1.01 0.99 1.06 1.03 1.01 0.96 0.92 0.89 0.87 0.86 0.81 0.79 0.81 0.82 0.78 0.75 0.76 0.67 0.66
0.96 1.01 0.96 0.86 0.84 0.81 0.79 0.78 0.82 0.84 0.89 0.86 0.83 0.86 0.90 0.92 0.95 0.96 0.97 0.97 0.98 0.99 0.97 0.97 0.94 0.92 0.92 0.95 0.96 0.96 0.95 0.92 0.93 0.94 0.92 0.88 0.82 0.71 0.71 0.63 0.59 0.57 0.57
0.99 0.98 0.97 0.82 0.78 0.80 0.76 0.74 0.78 0.80 0.78 0.79 0.81 0.87 0.91 0.94 0.92 0.93 0.93 0.97 0.93 0.95 0.94 0.98 1.01 1.00 0.96 0.96 0.93 0.96 0.97 0.93 0.87 0.86 0.82 0.76 0.67 0.62 0.55 0.49 0.48 0.50 0.54
1.01 0.89 0.86 0.77 0.71 0.77 0.79 0.78 0.82 0.84 0.78 0.77 0.83 0.87 0.91 0.88 0.92 0.87 0.87 0.90 0.93 0.97 0.98 0.94 0.95 0.91 0.91 0.93 0.94 0.92 0.91 0.85 0.76 0.71 0.63 0.54 0.46 0.37 0.37 0.37 0.39 0.41 0.43
Wind_Speed
15 16 18 20 22 23 24 25 26 26 26 28 29 30 31 29 29 29 30 30 30 30 28 26 25 23 24 25 26 28 30 31 29 25 25 25 25 26 25 25 25 25 23
15 17 19 19 20 22 23 24 27 28 28 29 30 30 30 30 29 30 31 31 31 29 27 28 27 25 25 27 30 31 32 28 26 25 24 24 24 24 24 22 20 19 18
15 18 19 19 20 20 23 26 28 29 31 31 31 32 32 31 30 30 30 30 30 30 28 27 26 25 27 29 32 32 29 26 24 22 22 22 24 24 22 19 18 18 17
20 22 22 23 24 26 27 29 30 31 33 34 34 34 33 32 31 30 30 29 28 27 26 25 25 25 26 28 29 23 21 19 17 17 17 15 13 11 14 14 13 13 12
23 24 26 27 29 30 32 33 35 36 36 37 37 37 36 35 34 32 30 29 28 27 26 26 25 25 25 24 19 16 16 15 13 13 12 10 9 10 10 11 12 13 13
28 29 30 31 32 34 35 37 38 39 40 40 40 38 37 36 35 34 33 31 29 28 27 26 25 24 22 19 17 15 14 12 11 10 10 10 9 9 8 10 12 12 13
31 31 32 33 35 37 38 39 41 42 40 40 38 37 36 35 34 33 32 31 30 29 28 27 25 23 20 18 16 14 13 12 10 9 10 12 12 12 12 11 11 11 11
32 34 35 36 38 39 41 42 43 42 41 39 37 36 35 34 33 33 32 31 30 29 29 27 25 23 20 18 15 13 11 10 9 10 9 9 9 9 10 10 10 10 9
33 34 35 37 39 40 41 42 41 41 40 38 36 35 34 33 31 31 31 30 29 28 27 25 24 22 20 19 17 14 12 10 9 7 7 7 6 7 7 8 9 9 9
32 33 35 36 38 39 38 38 38 38 37 36 35 34 33 31 30 30 30 30 29 27 26 25 24 22 21 20 19 16 14 13 11 10 9 9 9 8 9 9 10 10 11
31 32 34 35 35 35 35 34 33 33 32 32 31 31 29 28 28 28 27 26 26 26 25 24 24 23 22 21 20 19 17 15 14 12 11 11 10 10 10 10 11 11 10
29 30 31 31 32 32 31 30 29 28 27 26 26 24 23 22 22 23 25 26 25 26 25 24 25 24 23 22 21 20 19 17 15 14 13 11 13 12 11 11 11 11 11
26 27 27 27 27 27 27 27 26 25 24 21 19 18 18 19 20 20 21 20 21 22 25 22 23 24 24 22 22 21 20 19 18 17 16 15 13 13 13 13 12 11 11
24 25 25 24 24 25 25 23 22 22 20 16 16 15 16 16 17 19 20 21 22 24 26 24 23 23 23 23 22 21 20 20 19 17 16 15 14 15 14 14 14 14 13
20 22 22 21 21 22 21 21 20 18 17 16 15 14 14 14 15 15 16 18 19 21 20 19 21 21 22 21 20 20 21 18 17 17 16 16 15 14 14 15 14 14 14
17 18 19 19 20 19 19 18 18 16 14 13 12 11 10 10 11 11 12 12 14 16 19 19 18 21 22 22 21 20 19 19 19 18 17 16 16 15 15 15 15 14 14
15 15 16 17 18 18 18 18 16 15 14 13 11 10 10 11 10 10 10 11 11 14 17 20 21 20 20 18 18 18 17 19 18 18 17 17 16 15 16 15 15 14 15
13 13 14 15 15 16 18 18 17 15 14 13 12 10 10 9 8 8 10 10 9 9 11 12 14 16 18 18 18 17 17 16 18 17 17 16 16 16 16 15 16 17 16
13 12 13 13 13 14 15 16 17 17 16 12 11 9 8 8 7 7 7 8 9 9 9 9 11 15 12 14 16 16 15 15 16 16 16 16 16 17 16 17 16 16 18
13 13 12 12 12 11 12 13 16 16 15 15 12 7 4 3 3 4 4 4 6 8 8 10 11 11 12 14 14 15 16 15 15 16 16 16 17 16 17 18 18 19 20
13 14 13 12 12 11 11 12 13 12 13 12 10 8 6 3 1 1 3 5 5 6 7 7 8 10 9 10 12 13 13 13 13 14 14 14 15 17 18 19 20 22 22
13 12 12 12 10 10 10 9 10 9 8 9 8 6 5 5 3 3 2 1 2 4 5 5 6 7 8 9 10 10 11 10 11 12 13 15 17 18 19 21 22 23 24
12 11 11 9 8 8 8 8 8 7 6 6 5 5 4 4 4 3 2 2 1 2 1 3 4 6 7 8 9 9 10 12 14 16 17 18 19 19 21 23 23 25 26
10 9 8 7 7 6 6 5 6 5 4 4 4 5 5 5 5 5 4 4 2 2 4 4 4 5 6 8 9 10 10 11 12 14 15 17 19 21 22 24 26 26 26
8 8 7 6 5 5 5 4 4 4 5 5 6 6 8 7 8 6 5 4 4 3 4 4 5 6 7 7 9 10 11 12 15 15 16 19 21 23 24 25 25 25 26
9 7 6 6 4 4 4 4 6 6 6 6 6 7 8 8 8 7 7 6 5 6 6 7 7 9 10 10 10 11 12 14 14 15 18 20 21 22 23 23 24 25 26
Wind_Direction
268 268 273 277 275 274 274 280 286 289 288 289 289 288 285 283 278 275 273 273 274 275 274 274 279 283 285 290 290 290 292 291 286 281 268 266 266 263 260 260 261 257 246
275 277 279 278 283 277 275 283 285 288 289 288 289 289 286 279 281 276 273 271 273 273 273 276 279 282 286 291 293 294 292 289 283 276 271 268 266 259 257 253 251 245 235
290 285 284 283 283 281 284 287 288 289 289 289 288 286 284 281 278 276 274 271 271 272 273 274 277 282 287 294 297 293 289 285 282 275 272 272 267 255 244 244 244 232 227
289 288 287 286 285 285 287 289 290 291 291 289 287 285 281 279 277 274 273 272 269 269 271 272 278 282 291 297 299 295 291 286 281 274 271 268 291 224 215 235 222 217 217
291 289 287 286 286 287 288 289 290 290 289 289 287 284 279 276 273 271 270 269 266 267 266 271 275 283 291 296 301 298 293 288 280 274 270 250 252 252 244 239 225 222 225
289 288 288 287 287 287 289 290 290 290 289 288 285 282 278 274 271 267 266 265 264 262 264 269 273 280 286 287 290 297 297 289 282 273 251 244 254 249 253 235 240 238 244
290 290 290 290 289 289 290 291 291 290 289 286 284 281 277 273 269 264 262 261 260 260 261 265 269 274 275 279 283 289 289 285 276 271 258 256 253 249 242 246 240 246 249
291 291 291 291 291 292 292 292 292 290 287 285 281 280 276 272 267 263 260 259 258 260 261 260 262 263 265 268 272 276 280 282 282 272 260 254 251 242 242 241 237 241 243
293 293 293 293 294 295 295 294 292 291 287 283 279 278 274 271 267 262 258 256 257 256 256 255 256 254 257 260 262 263 265 268 270 273 258 251 240 236 238 236 237 237 246
296 297 297 298 298 298 298 297 297 293 287 282 279 275 274 268 264 260 257 255 255 251 251 250 249 249 253 257 250 252 254 253 255 261 253 254 249 247 246 248 246 248 249
300 301 301 301 301 301 302 301 301 298 292 285 281 274 270 267 262 259 256 255 249 247 246 246 246 248 250 250 246 246 250 248 249 251 249 251 249 248 253 256 256 255 252
304 305 307 307 306 305 304 304 305 303 297 289 283 274 270 266 260 257 255 252 247 246 244 246 248 244 246 246 245 245 242 245 244 243 246 249 248 252 254 263 264 258 256
308 310 311 312 314 314 310 308 307 307 303 295 288 275 271 267 262 257 257 247 232 249 242 242 241 245 239 241 241 243 243 240 242 246 252 250 246 250 255 261 259 258 259
311 314 315 316 316 317 319 314 311 310 307 297 290 281 276 272 264 261 253 250 254 253 244 242 241 238 236 238 240 240 239 242 242 241 237 243 250 255 256 259 258 259 261
314 318 320 321 322 322 323 326 320 317 310 299 296 287 280 275 271 261 254 253 248 244 239 238 230 230 231 233 233 235 234 237 237 236 242 246 254 254 257 260 259 257 260
316 323 327 327 328 329 329 330 335 334 329 316 307 293 283 276 274 265 255 248 244 235 229 236 234 236 233 235 234 232 234 234 237 240 244 249 252 255 260 262 261 260 259
316 323 330 337 340 340 338 334 329 331 331 327 319 304 290 277 277 267 253 252 252 243 241 239 243 234 228 228 228 229 232 234 238 239 243 248 251 257 259 258 257 261 261
309 319 326 331 337 345 349 351 346 338 327 321 316 304 292 281 277 272 260 250 250 248 235 235 231 232 222 224 225 225 230 238 240 241 243 250 255 256 256 258 261 263 264
303 309 318 325 329 338 347 354 0 2 357 334 318 306 292 284 275 269 256 245 244 242 232 229 223 219 218 218 219 226 234 236 237 240 249 251 256 256 259 261 263 263 265
301 305 309 314 321 326 334 347 355 357 355 359 6 1 327 298 279 274 244 223 238 225 221 216 217 227 227 229 225 233 241 240 241 246 249 251 256 257 260 264 268 270 270
293 299 304 304 308 312 316 325 334 343 356 354 356 10 10 358 285 266 254 235 224 222 216 221 227 226 222 224 231 236 238 240 243 244 248 253 260 263 266 268 271 273 272
289 294 297 303 304 307 307 312 324 332 342 353 2 2 9 35 40 34 33 337 220 214 211 220 230 222 227 228 235 241 242 241 243 249 257 263 268 271 273 276 277 276 276
283 283 293 297 299 305 314 322 323 324 328 339 346 3 15 11 3 353 333 320 292 206 224 245 232 231 232 237 242 252 251 256 262 267 270 272 274 275 277 278 279 282 279
273 283 284 282 300 307 306 310 329 332 331 342 352 354 354 358 353 332 323 336 289 263 262 248 241 249 253 252 259 262 263 273 276 275 275 278 282 282 282 283 283 283 282
269 275 271 262 289 296 304 319 317 325 326 324 327 329 326 330 337 329 331 318 322 294 292 288 270 276 273 269 276 278 272 283 288 284 283 285 287 287 287 286 285 284 283
264 261 241 277 262 275 280 301 316 316 308 306 306 327 322 319 316 318 314 308 299 300 291 288 283 285 282 282 283 280 284 289 291 291 293 294 293 292 291 289 288 287 285